ENY4153 KHSV-KMIA

Flight info

Callsign ENY4153
Flight time N/A
Altitude 35000
Route GAD LGC HONID FROGZ5
Aircraft E75L/M-SDE3GILORVW/S

Departure

Time 2026-04-28 13:34
Airport Huntsville International Airport (KHSV)

Arrival

Time N/A
Airport Miami International Airport (KMIA)
Time Latitude Longitude Altitude Speed Heading
2026-04-28 13:23 34.64753 -86.77430 627 ft 0 kts 278°
2026-04-28 13:24 34.64751 -86.77412 627 ft 4 kts 272°
2026-04-28 13:25 34.64753 -86.77380 629 ft 4 kts 258°
2026-04-28 13:25 34.64761 -86.77349 629 ft 4 kts 246°
2026-04-28 13:25 34.64766 -86.77337 629 ft 1 kts 245°
2026-04-28 13:25 34.64766 -86.77336 633 ft 0 kts 245°
2026-04-28 13:29 34.64757 -86.77346 634 ft 5 kts 210°
2026-04-28 13:29 34.64709 -86.77351 630 ft 7 kts 179°
2026-04-28 13:29 34.64635 -86.77359 633 ft 12 kts 194°
2026-04-28 13:29 34.64552 -86.77397 632 ft 14 kts 204°
2026-04-28 13:30 34.64501 -86.77488 632 ft 13 kts 268°
2026-04-28 13:30 34.64500 -86.77591 628 ft 12 kts 269°
2026-04-28 13:30 34.64502 -86.77698 628 ft 13 kts 270°
2026-04-28 13:30 34.64504 -86.77824 628 ft 17 kts 269°
2026-04-28 13:31 34.64636 -86.77974 626 ft 16 kts
2026-04-28 13:31 34.64743 -86.77971 627 ft 14 kts
2026-04-28 13:31 34.64836 -86.77968 632 ft 14 kts
2026-04-28 13:32 34.64953 -86.77966 625 ft 18 kts
2026-04-28 13:32 34.65083 -86.77964 632 ft 21 kts
2026-04-28 13:32 34.65217 -86.77963 626 ft 16 kts 353°
2026-04-28 13:32 34.65264 -86.78046 631 ft 14 kts 273°
2026-04-28 13:33 34.65264 -86.78090 624 ft 0 kts 270°
2026-04-28 13:33 34.65264 -86.78091 633 ft 1 kts 270°
2026-04-28 13:33 34.65255 -86.78174 622 ft 18 kts 238°
2026-04-28 13:34 34.65073 -86.78214 636 ft 56 kts 180°
2026-04-28 13:34 34.64388 -86.78225 626 ft 140 kts 181°
2026-04-28 13:34 34.63277 -86.78283 1274 ft 168 kts 181°
2026-04-28 13:34 34.62082 -86.78400 2391 ft 184 kts 181°
2026-04-28 13:35 34.60784 -86.78511 2578 ft 192 kts 181°
2026-04-28 13:35 34.59458 -86.78436 2310 ft 197 kts 161°
2026-04-28 13:35 34.58425 -86.77353 1823 ft 208 kts 118°
2026-04-28 13:35 34.58092 -86.75663 1809 ft 199 kts 103°
2026-04-28 13:36 34.57680 -86.74118 2161 ft 196 kts 119°
2026-04-28 13:36 34.56894 -86.72734 2432 ft 204 kts 133°
2026-04-28 13:36 34.55863 -86.71492 3459 ft 213 kts 139°
2026-04-28 13:36 34.54731 -86.70210 4374 ft 238 kts 141°
2026-04-28 13:37 34.53448 -86.68759 5100 ft 268 kts 141°
2026-04-28 13:37 34.52027 -86.67184 6055 ft 284 kts 143°
2026-04-28 13:37 34.50519 -86.65568 7183 ft 295 kts 144°
2026-04-28 13:37 34.48961 -86.63909 8354 ft 301 kts 143°
2026-04-28 13:38 34.47887 -86.62766 9136 ft 306 kts 143°
2026-04-28 13:38 34.46270 -86.61050 10345 ft 312 kts 143°
2026-04-28 13:38 34.44582 -86.59260 11136 ft 332 kts 143°
2026-04-28 13:38 34.42804 -86.57353 11911 ft 350 kts 142°
2026-04-28 13:39 34.40942 -86.55356 12686 ft 365 kts 143°
2026-04-28 13:39 34.39009 -86.53277 13568 ft 376 kts 143°
2026-04-28 13:39 34.37033 -86.51154 14608 ft 384 kts 143°
2026-04-28 13:39 34.35021 -86.48993 15675 ft 390 kts 143°
2026-04-28 13:40 34.32980 -86.46806 16688 ft 395 kts 143°
2026-04-28 13:40 34.30912 -86.44583 17606 ft 401 kts 143°
2026-04-28 13:40 34.28815 -86.42325 18471 ft 406 kts 143°
2026-04-28 13:40 34.26696 -86.40039 19264 ft 411 kts 143°
2026-04-28 13:41 34.24578 -86.37749 20059 ft 416 kts 143°
2026-04-28 13:41 34.22406 -86.35401 20858 ft 421 kts 143°
2026-04-28 13:41 34.20180 -86.32989 21620 ft 426 kts 142°
2026-04-28 13:41 34.17993 -86.30614 22347 ft 431 kts 142°
2026-04-28 13:42 34.15752 -86.28179 23028 ft 435 kts 142°
2026-04-28 13:42 34.13490 -86.25718 23654 ft 440 kts 142°
2026-04-28 13:42 34.11206 -86.23230 24244 ft 445 kts 141°
2026-04-28 13:42 34.08903 -86.20717 24811 ft 446 kts 142°
2026-04-28 13:43 34.06582 -86.18189 25306 ft 451 kts 141°
2026-04-28 13:43 34.04242 -86.15638 25852 ft 455 kts 141°
2026-04-28 13:43 34.01905 -86.13087 26608 ft 452 kts 141°
2026-04-28 13:43 33.99584 -86.10541 27340 ft 450 kts 141°
2026-04-28 13:44 33.97267 -86.08011 28041 ft 448 kts 141°
2026-04-28 13:44 33.94874 -86.05633 28674 ft 444 kts 145°
2026-04-28 13:44 33.92433 -86.03344 29239 ft 445 kts 144°
2026-04-28 13:44 33.90005 -86.01037 29858 ft 444 kts 144°
2026-04-28 13:45 33.87586 -85.98730 30437 ft 443 kts 144°
2026-04-28 13:45 33.85177 -85.96429 31015 ft 442 kts 144°
2026-04-28 13:45 33.82775 -85.94135 31593 ft 440 kts 144°
2026-04-28 13:45 33.80384 -85.91848 32156 ft 438 kts 143°
2026-04-28 13:46 33.77997 -85.89566 32677 ft 438 kts 143°
2026-04-28 13:46 33.75621 -85.87297 33222 ft 436 kts 143°
2026-04-28 13:46 33.73255 -85.85041 33751 ft 433 kts 143°
2026-04-28 13:46 33.70897 -85.82791 34202 ft 433 kts 143°
2026-04-28 13:47 33.68540 -85.80542 34657 ft 432 kts 143°
2026-04-28 13:47 33.66197 -85.78305 35150 ft 429 kts 143°
2026-04-28 13:47 33.63859 -85.76078 35372 ft 433 kts 143°
2026-04-28 13:47 33.61493 -85.73826 35341 ft 435 kts 143°
2026-04-28 13:48 33.56738 -85.69304 35336 ft 438 kts 143°
2026-04-28 13:48 33.51961 -85.64768 35330 ft 439 kts 143°
2026-04-28 13:49 33.47168 -85.60222 35268 ft 439 kts 143°
2026-04-28 13:49 33.42377 -85.55688 35274 ft 440 kts 143°
2026-04-28 13:50 33.37573 -85.51145 35272 ft 440 kts 143°
2026-04-28 13:50 33.32766 -85.46611 35287 ft 440 kts 143°
2026-04-28 13:51 33.27952 -85.42071 35286 ft 441 kts 142°
2026-04-28 13:51 33.23137 -85.37537 35279 ft 440 kts 142°
2026-04-28 13:52 33.18324 -85.33013 35286 ft 440 kts 142°
2026-04-28 13:52 33.13540 -85.28523 35285 ft 441 kts 142°